EW4117 Gor ES current weather conditions

sailwx.info

Wind from 124 at 7 knots gusting 15

Air temperature 12.2° C
Dewpoint 6.3° C

Last reported at 2018-Oct-18 08:00 UTC.
Time now 2018-Oct-18 08:59 UTC

Location: N 37°22' W 002°59'.
View on Google Maps.

See reports from other nearby stations

  
Tides and Currents Weather Stations Pressure Air Temp Water Temp Dewpoint Dewpoint Depression Visibility Wind Speed Wind Dir Waves Ship Positions
date/time (UTC)wind fromknots sea level pressurealtimeterstation pressurevisibilityair tempwater tempwave heightnotes
2018-Oct-18 08:00 124 7 gusting 15 12.2
2018-Oct-18 07:46 158 11 gusting 17 12.2
2018-Oct-18 07:31 129 9 gusting 17 12.2
2018-Oct-18 07:16 148 10 gusting 16 12.2
2018-Oct-18 07:01 129 10 gusting 14 12.2
2018-Oct-18 06:46 103 8 gusting 23 12.2
2018-Oct-18 06:31 130 11 gusting 17 12.2
2018-Oct-18 06:16 139 8 gusting 13 12.2
2018-Oct-18 06:00 155 9 gusting 15 12.2
2018-Oct-18 05:46 139 10 gusting 13 12.2
2018-Oct-18 05:30 132 7 gusting 13 12.2
2018-Oct-18 05:15 131 8 gusting 13 12.2
2018-Oct-18 05:01 156 6 gusting 12 12.2
2018-Oct-18 04:45 104 4 gusting 9 12.2
2018-Oct-18 04:30 124 6 gusting 9 11.7
2018-Oct-18 04:15 103 5 gusting 7 11.7
2018-Oct-18 04:00 149 11.1
2018-Oct-18 03:45 141 10.6
2018-Oct-18 03:30 143 10.6
2018-Oct-18 03:15 239 11.1
2018-Oct-18 03:00 224 11.1
2018-Oct-18 02:45 150 0 gusting 1 11.1
2018-Oct-18 02:31 161 0 gusting 3 11.1
2018-Oct-18 02:16 145 0 gusting 2 10.6
2018-Oct-18 02:02 154 0 gusting 3 10.6
2018-Oct-18 01:46 205 1 gusting 3 10.6
2018-Oct-18 01:31 188 11.1
2018-Oct-18 01:18 200 0 gusting 2 10.6
2018-Oct-18 01:01 155 1 gusting 3 10.6
2018-Oct-18 00:47 169 2 gusting 4 10.6
2018-Oct-18 00:31 174 1 gusting 3 10.0
2018-Oct-18 00:15 176 10.6
2018-Oct-18 00:01 176 0 gusting 1 10.6
2018-Oct-17 23:45 146 0 gusting 2 10.6
2018-Oct-17 23:31 167 1 gusting 2 10.6
2018-Oct-17 23:15 149 1 gusting 2 11.1
2018-Oct-17 23:00 167 1 gusting 2 10.6
2018-Oct-17 22:45 149 1 gusting 3 10.6
2018-Oct-17 22:30 157 1 gusting 2 10.6
2018-Oct-17 22:15 160 1 gusting 2 11.1
2018-Oct-17 22:01 155 0 gusting 1 11.1
2018-Oct-17 21:45 165 1 gusting 3 11.1
2018-Oct-17 21:30 150 1 gusting 2 11.1
2018-Oct-17 21:15 143 0 gusting 2 11.1
2018-Oct-17 21:00 148 11.7
2018-Oct-17 20:46 153 11.1
2018-Oct-17 20:30 145 1 gusting 3 11.1
2018-Oct-17 20:15 155 11.7
2018-Oct-17 20:00 167 11.7
2018-Oct-17 19:45 144 0 gusting 2 11.7
2018-Oct-17 19:30 153 0 gusting 2 11.7
2018-Oct-17 19:15 140 1 gusting 2 11.7
2018-Oct-17 19:00 137 1 gusting 3 11.7
2018-Oct-17 18:45 146 1 gusting 2 12.2
2018-Oct-17 18:15 143 12.8
2018-Oct-17 18:00 049 0 gusting 2 12.8
2018-Oct-17 17:45 141 12.8
2018-Oct-17 17:30 001 1 gusting 3 13.3
2018-Oct-17 17:15 358 3 gusting 6 13.9
2018-Oct-17 17:00 354 2 gusting 6 15.0
2018-Oct-17 16:45 307 2 gusting 8 15.0
2018-Oct-17 16:30 314 4 gusting 6 15.6
2018-Oct-17 16:17 323 2 gusting 5 15.6
2018-Oct-17 16:01 342 3 gusting 7 15.6
2018-Oct-17 15:46 278 2 gusting 6 16.1
2018-Oct-17 15:31 265 15.6
2018-Oct-17 15:16 304 2 gusting 6 16.1
2018-Oct-17 15:01 235 1 gusting 5 16.1
2018-Oct-17 14:46 323 6 gusting 7 15.6
2018-Oct-17 14:32 042 1 gusting 4 15.6
2018-Oct-17 14:16 333 0 gusting 6 15.6
2018-Oct-17 14:01 340 3 gusting 7 15.6
2018-Oct-17 13:46 264 15.0
2018-Oct-17 13:31 335 0 gusting 6 15.0
2018-Oct-17 13:16 009 2 gusting 7 15.0
2018-Oct-17 13:00 314 1 gusting 3 15.0
2018-Oct-17 12:45 319 4 gusting 9 15.0
2018-Oct-17 12:30 321 3 gusting 5 15.0
2018-Oct-17 12:15 358 4 gusting 7 15.0
2018-Oct-17 12:00 300 0 gusting 6 14.4
2018-Oct-17 11:45 358 1 gusting 5 14.4
2018-Oct-17 11:30 008 4 gusting 6 13.9
2018-Oct-17 11:15 338 5 gusting 7 13.9
2018-Oct-17 11:00 314 2 gusting 5 13.9
2018-Oct-17 10:45 320 1 gusting 9 13.3
2018-Oct-17 10:30 261 1 gusting 5 13.3
2018-Oct-17 10:16 284 1 gusting 5 13.9
2018-Oct-17 10:01 008 0 gusting 4 13.3
2018-Oct-17 09:46 351 2 gusting 4 12.8
2018-Oct-17 09:31 301 1 gusting 4 12.8
2018-Oct-17 09:16 345 2 gusting 5 12.8
2018-Oct-17 09:01 289 0 gusting 1 12.8
2018-Oct-17 08:46 136 12.8
2018-Oct-17 08:31 053 0 gusting 1 12.2
2018-Oct-17 08:15 270 11.7
2018-Oct-17 08:01 167 12.2
2018-Oct-17 07:46 150 11.1
2018-Oct-17 07:30 145 0 gusting 1 10.0
2018-Oct-17 07:15 147 0 gusting 1 9.4
2018-Oct-17 07:00 148 0 gusting 1 9.4
2018-Oct-17 06:46 130 0 gusting 0 9.4
2018-Oct-17 06:30 096 0 gusting 2 9.4
2018-Oct-17 06:15 143 1 gusting 2 8.9
2018-Oct-17 06:00 143 0 gusting 1 8.9
2018-Oct-17 05:45 138 1 gusting 2 8.9
2018-Oct-17 05:30 153 2 gusting 3 8.9
2018-Oct-17 05:16 152 0 gusting 1 8.9
2018-Oct-17 05:00 151 1 gusting 2 8.9
2018-Oct-17 04:45 145 9.4
2018-Oct-17 04:30 150 0 gusting 1 8.9
2018-Oct-17 04:15 132 9.4
2018-Oct-17 04:00 137 9.4
2018-Oct-17 03:45 127 9.4
2018-Oct-17 03:30 140 0 gusting 1 9.4
2018-Oct-17 03:15 150 9.4
2018-Oct-17 03:00 075 9.4
2018-Oct-17 02:45 139 9.4
2018-Oct-17 02:30 152 9.4
2018-Oct-17 02:15 152 9.4
2018-Oct-17 02:00 164 9.4
2018-Oct-17 01:45 120 9.4
2018-Oct-17 01:30 124 9.4
2018-Oct-17 01:15 152 8.9
2018-Oct-17 01:00 226 0 gusting 2 8.9
2018-Oct-17 00:45 165 9.4
2018-Oct-17 00:30 153 8.9
2018-Oct-17 00:18 143 0 gusting 2 8.9
2018-Oct-17 00:02 158 9.4
2018-Oct-16 23:46 155 9.4
2018-Oct-16 23:31 157 10.0
2018-Oct-16 23:16 153 10.0
2018-Oct-16 23:01 124 0 gusting 1 10.6
2018-Oct-16 22:46 102 10.6
2018-Oct-16 22:32 143 10.6
2018-Oct-16 22:16 143 10.6
2018-Oct-16 22:01 150 10.6
2018-Oct-16 21:46 151 0 gusting 1 10.6
2018-Oct-16 21:31 156 0 gusting 1 10.6
2018-Oct-16 21:15 150 10.0
2018-Oct-16 21:01 162 0 gusting 2 10.0
2018-Oct-16 20:45 168 0 gusting 2 9.4
2018-Oct-16 20:30 151 1 gusting 3 9.4
2018-Oct-16 20:15 146 10.0
2018-Oct-16 20:00 150 9.4
2018-Oct-16 19:46 148 10.0
2018-Oct-16 19:31 139 10.6
2018-Oct-16 19:15 142 10.6
2018-Oct-16 19:00 146 0 gusting 1 10.6
2018-Oct-16 18:45 139 0 gusting 1 11.1
2018-Oct-16 18:30 148 0 gusting 1 11.1
2018-Oct-16 18:15 142 11.1
2018-Oct-16 18:00 072 0 gusting 3 11.7
2018-Oct-16 17:45 042 2 gusting 5 11.7
2018-Oct-16 17:31 090 3 gusting 6 12.2
2018-Oct-16 17:15 041 4 gusting 8 12.8
2018-Oct-16 17:00 053 6 gusting 11 12.8
2018-Oct-16 16:45 035 4 gusting 9 12.8
2018-Oct-16 16:30 057 5 gusting 9 13.3
2018-Oct-16 16:15 043 5 gusting 10 13.3
2018-Oct-16 16:00 051 2 gusting 6 13.3
2018-Oct-16 15:45 046 5 gusting 8 12.8
2018-Oct-16 15:30 036 5 gusting 8 12.8
2018-Oct-16 15:15 048 4 gusting 9 12.8
2018-Oct-16 15:00 020 5 gusting 8 13.3
2018-Oct-16 14:45 117 1 gusting 6 13.9
2018-Oct-16 14:30 064 1 gusting 4 13.3
2018-Oct-16 14:01 081 3 gusting 6 12.8
2018-Oct-16 13:46 106 2 gusting 7 13.3
2018-Oct-16 13:31 274 0 gusting 2 13.3
2018-Oct-16 13:17 240 14.4
2018-Oct-16 13:01 330 0 gusting 3 12.8
2018-Oct-16 12:46 341 12.2
2018-Oct-16 12:32 300 0 gusting 10 12.2
2018-Oct-16 12:16 356 2 gusting 8 11.7
2018-Oct-16 12:01 021 4 gusting 7 11.7
2018-Oct-16 11:46 358 4 gusting 13 11.7
2018-Oct-16 11:32 031 6 gusting 8 11.7
2018-Oct-16 11:16 015 4 gusting 10 11.1
2018-Oct-16 11:01 355 3 gusting 11 11.1
2018-Oct-16 10:46 358 6 gusting 10 10.6
2018-Oct-16 10:30 022 6 gusting 9 10.6
2018-Oct-16 10:15 034 2 gusting 5 10.0
2018-Oct-16 10:00 321 0 gusting 3 9.4
2018-Oct-16 09:45 302 0 gusting 1 9.4
2018-Oct-16 09:31 317 8.9
2018-Oct-16 09:15 318 8.3
2018-Oct-16 09:00 350 1 gusting 4 8.3
2018-Oct-16 08:45 034 2 gusting 5 8.3
2018-Oct-16 08:30 331 2 gusting 4 8.9
2018-Oct-16 08:15 332 0 gusting 3 8.9
2018-Oct-16 08:00 325 0 gusting 2 8.9